SL-16 DEB, 22426

Orbit data source: Space-Track

SL-16 DEB, 22426 is space debris in LEO originally from a launch on Fri, 25 Dec 1992 UTC launched from the Tyuratam Missile And Space Complex (TTMTR). Debris objects in space refer to the collection of defunct objects orbiting the Earth. Examples of debris include non-operational satellites, rocket bodies, and fragments generated from explosions, collisions, or faulty payload assembly.

Loading next visibility...
Identifier
22426, 1992-093DT
Orbit
LEO
Country
Flag of CISCIS
Related business
Manufacturer
Unknown
Mission
Spacecraft
Bus & Motor
Unknown
Mass
Unknown
Launch date (UTC)
1992-12-25 (33 years ago)
Launch vehicle
Unknown
Launch site
Tyuratam Missile And Space Complex (TTMTR)
Object type
Payload
Rocket body
Debris
Shape & HBR
Unknown shape, 0.2 m
Radar Cross Section
Small (<0.1 m²)

Expand to show TLE details & history
Last TLE update: 1 day ago

TLE from 1 day ago
0 SL-16 DEB
1 22426U 92093DT  25347.37543388  .00002708  00000-0  10169-2 0  9997
2 22426  71.3495 319.9433 0120200 154.4722 356.4272 14.28488671696648
Epoch: 2025-12-13T09:00Z
TLE epoch observation values (Epoch: 2025-12-13T09:00:37.487Z)
Latitude
27.57184°
Longitude
-87.61207°
Altitude
713.599 km
Speed
7.546 km/s
True Right ascension
08h 39m 23s
True Declination
27° 25' 48"
Sunlit
Object was in full shadow at epoch
Visualization orbit readout
Latitude
Unknown
Longitude
Unknown
Altitude
Unknown
Speed
Unknown
Apparent Right ascension
Unknown
Apparent Declination
Unknown
Sunlit
N/A
Visualization observer readout
Local Sidereal Time
09:31:29
Azimuth
Unknown
Elevation
Unknown
Doppler factor
Unknown
Orbital elements
Apogee altitude
880.881 km
Perigee altitude
708.447 km
Semi-major axis
7,172.801 km
Eccentricity
0.01202
Inclination
71.3495°
RAAN
319.9433°
Arg. of periapsis
154.4722°
True anomaly
356.34006°
Mean anomaly
356.4272°
Eccentric anomaly
356.38376°
Mean motion
3.57281 °/min
Orbital period
100.76 mins
BSTAR
0.0010169
Loading maneuver chart data...
Computing Atmospheric mass density...
Loading historical data...
Loading historical data...
Loading historical data...
Loading historical data...
Loading historical data...
Loading historical data...
Loading historical data...

Documentation

Showing up to 5 results
|